Wetterdaten: Mittwoch, 17.11.2004
Datum Zeit Temp. A Sch. Temp. A Son. Feuchte A. Luftdruck Regen Wind Richtung Richtung Sonnenschein Helligkeit Taupunkt Windchill
17.11.2004 00:00 7,3 C 7,4 C 79 % 1024 hPa 0,0 l/m 3,6 m/s (1 Bft) W-SW22.5 240 0,00 min 0 lux 3,9 C 2,8 C
17.11.2004 00:05 7,3 C 7,4 C 80 % 1024 hPa 0,0 l/m 3,7 m/s (1 Bft) W-SW 240 0,00 min 0 lux 4,1 C 2,7 C
17.11.2004 00:10 7,3 C 7,4 C 79 % 1024 hPa 0,0 l/m 4,3 m/s (1 Bft) W-SW22.5 245 0,00 min 0 lux 3,9 C 1,6 C
17.11.2004 00:15 7,3 C 7,4 C 79 % 1024 hPa 0,0 l/m 3,4 m/s (1 Bft) W-SW22.5 245 0,00 min 0 lux 3,9 C 3,3 C
17.11.2004 00:20 7,3 C 7,4 C 79 % 1024 hPa 0,0 l/m 3,2 m/s (1 Bft) W-SW22.5 245 0,00 min 0 lux 3,9 C 3,7 C
17.11.2004 00:25 7,3 C 7,4 C 79 % 1024 hPa 0,0 l/m 4,1 m/s (1 Bft) W-SW22.5 245 0,00 min 0 lux 3,9 C 2,1 C
17.11.2004 00:30 7,3 C 7,4 C 78 % 1024 hPa 0,0 l/m 3,3 m/s (1 Bft) W-SW22.5 245 0,00 min 0 lux 3,7 C 3,4 C
17.11.2004 00:35 7,3 C 7,4 C 78 % 1024 hPa 0,0 l/m 4,1 m/s (1 Bft) W-SW22.5 240 0,00 min 0 lux 3,7 C 2,0 C
17.11.2004 00:40 7,3 C 7,4 C 78 % 1024 hPa 0,0 l/m 4,2 m/s (1 Bft) W-SW22.5 245 0,00 min 0 lux 3,7 C 1,8 C
17.11.2004 00:45 7,3 C 7,4 C 78 % 1024 hPa 0,0 l/m 3,1 m/s (1 Bft) W-SW45 250 0,00 min 0 lux 3,7 C 3,8 C
17.11.2004 00:50 7,3 C 7,4 C 78 % 1024 hPa 0,0 l/m 4,1 m/s (1 Bft) W-SW45 245 0,00 min 0 lux 3,7 C 2,1 C
17.11.2004 00:55 7,3 C 7,4 C 77 % 1024 hPa 0,0 l/m 3,9 m/s (1 Bft) W-SW22.5 240 0,00 min 0 lux 3,5 C 2,3 C
17.11.2004 01:00 7,3 C 7,5 C 77 % 1024 hPa 0,0 l/m 5,3 m/s (1 Bft) W-SW45 240 0,00 min 0 lux 3,5 C 0,2 C
17.11.2004 01:05 7,3 C 7,5 C 77 % 1024 hPa 0,0 l/m 4,1 m/s (1 Bft) W-SW45 250 0,00 min 0 lux 3,5 C 2,0 C
17.11.2004 01:10 7,3 C 7,4 C 77 % 1024 hPa 0,0 l/m 4,6 m/s (1 Bft) W-SW45 250 0,00 min 0 lux 3,5 C 1,2 C
17.11.2004 01:15 7,2 C 7,4 C 78 % 1024 hPa 0,0 l/m 3,7 m/s (1 Bft) W-SW22.5 240 0,00 min 0 lux 3,6 C 2,6 C
17.11.2004 01:20 7,1 C 7,4 C 78 % 1024 hPa 0,0 l/m 5,2 m/s (1 Bft) W-SW45 240 0,00 min 0 lux 3,5 C -0,0 C
17.11.2004 01:25 7,1 C 7,4 C 78 % 1024 hPa 0,0 l/m 3,9 m/s (1 Bft) W-SW45 240 0,00 min 0 lux 3,5 C 2,0 C
17.11.2004 01:30 7,1 C 7,3 C 79 % 1024 hPa 0,0 l/m 4,0 m/s (1 Bft) W-SW22.5 240 0,00 min 0 lux 3,7 C 1,9 C
17.11.2004 01:35 7,1 C 7,3 C 79 % 1024 hPa 0,0 l/m 2,8 m/s (1 Bft) SW22.5 235 0,00 min 0 lux 3,7 C 4,4 C
17.11.2004 01:40 7,1 C 7,3 C 79 % 1024 hPa 0,0 l/m 3,4 m/s (1 Bft) SW22.5 235 0,00 min 0 lux 3,7 C 3,1 C
17.11.2004 01:45 7,0 C 7,3 C 79 % 1023 hPa 0,0 l/m 4,1 m/s (1 Bft) W-SW22.5 245 0,00 min 0 lux 3,6 C 1,7 C
17.11.2004 01:50 6,9 C 7,3 C 80 % 1023 hPa 0,0 l/m 2,8 m/s (1 Bft) SW 235 0,00 min 0 lux 3,7 C 4,1 C
17.11.2004 01:55 7,1 C 7,3 C 79 % 1023 hPa 0,0 l/m 2,8 m/s (1 Bft) W-SW22.5 240 0,00 min 0 lux 3,7 C 4,3 C
17.11.2004 02:00 7,1 C 7,3 C 79 % 1023 hPa 0,0 l/m 3,3 m/s (1 Bft) SW22.5 235 0,00 min 0 lux 3,7 C 3,2 C
17.11.2004 02:05 7,1 C 7,2 C 79 % 1023 hPa 0,0 l/m 3,1 m/s (1 Bft) W-SW22.5 245 0,00 min 0 lux 3,7 C 3,8 C
17.11.2004 02:10 7,1 C 7,2 C 80 % 1023 hPa 0,0 l/m 2,0 m/s (1 Bft) W-SW22.5 250 0,00 min 0 lux 3,9 C 6,4 C
17.11.2004 02:15 7,1 C 7,2 C 79 % 1023 hPa 0,0 l/m 3,2 m/s (1 Bft) W-SW22.5 240 0,00 min 0 lux 3,7 C 3,5 C
17.11.2004 02:20 7,1 C 7,2 C 79 % 1023 hPa 0,0 l/m 3,0 m/s (1 Bft) W-SW 250 0,00 min 0 lux 3,7 C 3,9 C
17.11.2004 02:25 7,1 C 7,2 C 79 % 1023 hPa 0,0 l/m 3,1 m/s (1 Bft) SW22.5 235 0,00 min 0 lux 3,7 C 3,7 C
17.11.2004 02:30 7,1 C 7,2 C 79 % 1023 hPa 0,0 l/m 3,3 m/s (1 Bft) W-SW22.5 245 0,00 min 0 lux 3,7 C 3,3 C
17.11.2004 02:35 7,1 C 7,2 C 79 % 1023 hPa 0,0 l/m 2,9 m/s (1 Bft) W-SW22.5 245 0,00 min 0 lux 3,7 C 4,1 C
17.11.2004 02:40 7,1 C 7,2 C 79 % 1023 hPa 0,0 l/m 3,5 m/s (1 Bft) W-SW22.5 240 0,00 min 0 lux 3,7 C 2,8 C
17.11.2004 02:45 7,0 C 7,2 C 79 % 1023 hPa 0,0 l/m 3,3 m/s (1 Bft) SW22.5 235 0,00 min 0 lux 3,6 C 3,1 C
17.11.2004 02:50 7,0 C 7,2 C 79 % 1023 hPa 0,0 l/m 3,2 m/s (1 Bft) SW22.5 235 0,00 min 0 lux 3,6 C 3,3 C
17.11.2004 02:55 7,1 C 7,2 C 79 % 1023 hPa 0,0 l/m 3,1 m/s (1 Bft) W-SW22.5 245 0,00 min 0 lux 3,7 C 3,8 C
17.11.2004 03:00 7,1 C 7,2 C 79 % 1023 hPa 0,0 l/m 3,6 m/s (1 Bft) W-SW45 240 0,00 min 0 lux 3,7 C 2,6 C
17.11.2004 03:05 7,1 C 7,2 C 79 % 1023 hPa 0,0 l/m 4,5 m/s (1 Bft) W-SW45 240 0,00 min 0 lux 3,7 C 1,0 C
17.11.2004 03:10 7,1 C 7,2 C 79 % 1023 hPa 0,0 l/m 3,2 m/s (1 Bft) W-SW22.5 240 0,00 min 0 lux 3,7 C 3,4 C
17.11.2004 03:15 7,1 C 7,2 C 79 % 1023 hPa 0,0 l/m 3,9 m/s (1 Bft) W-SW22.5 245 0,00 min 0 lux 3,7 C 2,0 C
17.11.2004 03:20 7,0 C 7,2 C 79 % 1023 hPa 0,0 l/m 3,8 m/s (1 Bft) W-SW22.5 250 0,00 min 0 lux 3,6 C 2,2 C
17.11.2004 03:25 7,1 C 7,2 C 80 % 1023 hPa 0,0 l/m 2,9 m/s (1 Bft) W-SW45 250 0,00 min 0 lux 3,9 C 4,1 C
17.11.2004 03:30 7,0 C 7,2 C 80 % 1023 hPa 0,0 l/m 2,5 m/s (1 Bft) W-SW22.5 245 0,00 min 0 lux 3,8 C 5,0 C
17.11.2004 03:35 7,0 C 7,2 C 80 % 1023 hPa 0,0 l/m 4,2 m/s (1 Bft) W-SW45 245 0,00 min 0 lux 3,8 C 1,5 C
17.11.2004 03:40 7,1 C 7,2 C 80 % 1023 hPa 0,0 l/m 4,2 m/s (1 Bft) W-SW45 245 0,00 min 0 lux 3,9 C 1,6 C
17.11.2004 03:45 7,1 C 7,2 C 80 % 1023 hPa 0,0 l/m 4,8 m/s (1 Bft) W-SW45 245 0,00 min 0 lux 3,9 C 0,6 C
17.11.2004 03:50 6,9 C 7,2 C 81 % 1023 hPa 0,0 l/m 3,3 m/s (1 Bft) SW22.5 235 0,00 min 0 lux 3,9 C 3,1 C
17.11.2004 03:55 6,9 C 7,2 C 81 % 1022 hPa 0,0 l/m 3,8 m/s (1 Bft) W-SW45 240 0,00 min 0 lux 3,9 C 2,0 C
17.11.2004 04:00 6,9 C 7,1 C 81 % 1022 hPa 0,0 l/m 2,8 m/s (1 Bft) W-SW22.5 240 0,00 min 0 lux 3,9 C 4,0 C
17.11.2004 04:05 7,1 C 7,1 C 80 % 1022 hPa 0,0 l/m 3,3 m/s (1 Bft) W-SW22.5 245 0,00 min 0 lux 3,9 C 3,3 C
17.11.2004 04:10 7,0 C 7,1 C 80 % 1022 hPa 0,0 l/m 4,0 m/s (1 Bft) W-SW22.5 245 0,00 min 0 lux 3,8 C 1,8 C
17.11.2004 04:15 7,0 C 7,1 C 80 % 1022 hPa 0,0 l/m 4,0 m/s (1 Bft) W-SW22.5 245 0,00 min 0 lux 3,8 C 1,8 C
17.11.2004 04:20 7,0 C 7,2 C 80 % 1022 hPa 0,0 l/m 3,6 m/s (1 Bft) W-SW22.5 245 0,00 min 0 lux 3,8 C 2,5 C
17.11.2004 04:25 7,0 C 7,2 C 79 % 1022 hPa 0,0 l/m 3,4 m/s (1 Bft) W-SW22.5 240 0,00 min 0 lux 3,6 C 2,9 C
17.11.2004 04:30 7,1 C 7,2 C 79 % 1022 hPa 0,0 l/m 3,6 m/s (1 Bft) W-SW45 245 0,00 min 0 lux 3,7 C 2,7 C
17.11.2004 04:35 7,1 C 7,2 C 79 % 1022 hPa 0,0 l/m 3,6 m/s (1 Bft) W-SW22.5 245 0,00 min 0 lux 3,7 C 2,6 C
17.11.2004 04:40 7,1 C 7,2 C 79 % 1022 hPa 0,0 l/m 4,3 m/s (1 Bft) W-SW22.5 240 0,00 min 0 lux 3,7 C 1,4 C
17.11.2004 04:45 7,1 C 7,2 C 79 % 1022 hPa 0,0 l/m 4,4 m/s (1 Bft) W-SW45 245 0,00 min 0 lux 3,7 C 1,2 C
17.11.2004 04:50 7,1 C 7,2 C 79 % 1022 hPa 0,0 l/m 5,4 m/s (1 Bft) SW45 235 0,00 min 0 lux 3,7 C -0,3 C
17.11.2004 04:55 7,0 C 7,2 C 80 % 1022 hPa 0,0 l/m 4,3 m/s (1 Bft) W-SW45 240 0,00 min 0 lux 3,8 C 1,2 C
17.11.2004 05:00 7,0 C 7,2 C 80 % 1022 hPa 0,0 l/m 6,6 m/s (2 Bft) W-SW22.5 245 0,00 min 0 lux 3,8 C -1,8 C
17.11.2004 05:05 7,0 C 7,2 C 80 % 1022 hPa 0,0 l/m 4,6 m/s (1 Bft) W-SW45 250 0,00 min 0 lux 3,8 C 0,8 C
17.11.2004 05:10 7,0 C 7,2 C 80 % 1022 hPa 0,0 l/m 5,6 m/s (1 Bft) SW45 235 0,00 min 0 lux 3,8 C -0,7 C
17.11.2004 05:15 7,0 C 7,2 C 81 % 1022 hPa 0,0 l/m 6,0 m/s (2 Bft) W-SW45 240 0,00 min 0 lux 4,0 C -1,2 C
17.11.2004 05:20 7,0 C 7,2 C 81 % 1021 hPa 0,0 l/m 5,2 m/s (1 Bft) W-SW45 240 0,00 min 0 lux 4,0 C -0,1 C
17.11.2004 05:25 7,0 C 7,2 C 81 % 1021 hPa 0,0 l/m 5,3 m/s (1 Bft) W-SW22.5 245 0,00 min 0 lux 4,0 C -0,2 C
17.11.2004 05:30 7,0 C 7,2 C 81 % 1021 hPa 0,0 l/m 5,4 m/s (1 Bft) W-SW22.5 250 0,00 min 0 lux 4,0 C -0,4 C
17.11.2004 05:35 7,0 C 7,2 C 81 % 1021 hPa 0,0 l/m 4,9 m/s (1 Bft) W-SW22.5 240 0,00 min 0 lux 4,0 C 0,4 C
17.11.2004 05:40 7,0 C 7,2 C 81 % 1021 hPa 0,0 l/m 5,3 m/s (1 Bft) W-SW22.5 250 0,00 min 0 lux 4,0 C -0,3 C
17.11.2004 05:45 7,0 C 7,2 C 80 % 1021 hPa 0,0 l/m 4,3 m/s (1 Bft) W-SW22.5 245 0,00 min 0 lux 3,8 C 1,4 C
17.11.2004 05:50 7,0 C 7,2 C 80 % 1021 hPa 0,0 l/m 5,4 m/s (1 Bft) W-SW45 240 0,00 min 0 lux 3,8 C -0,3 C
17.11.2004 05:55 7,0 C 7,2 C 80 % 1021 hPa 0,0 l/m 5,1 m/s (1 Bft) W-SW22.5 250 0,00 min 0 lux 3,8 C 0,1 C
17.11.2004 06:00 7,0 C 7,2 C 80 % 1021 hPa 0,0 l/m 4,4 m/s (1 Bft) W-SW22.5 245 0,00 min 0 lux 3,8 C 1,0 C
17.11.2004 06:05 7,0 C 7,2 C 80 % 1021 hPa 0,0 l/m 3,9 m/s (1 Bft) W-SW67.5 245 0,00 min 0 lux 3,8 C 1,9 C
17.11.2004 06:10 7,0 C 7,2 C 80 % 1021 hPa 0,0 l/m 4,6 m/s (1 Bft) W-SW45 240 0,00 min 0 lux 3,8 C 0,8 C
17.11.2004 06:15 7,0 C 7,2 C 80 % 1021 hPa 0,0 l/m 4,3 m/s (1 Bft) W-SW22.5 250 0,00 min 0 lux 3,8 C 1,2 C
17.11.2004 06:20 7,0 C 7,2 C 80 % 1021 hPa 0,0 l/m 4,1 m/s (1 Bft) W-SW22.5 245 0,00 min 0 lux 3,8 C 1,5 C
17.11.2004 06:25 7,0 C 7,2 C 80 % 1021 hPa 0,0 l/m 4,0 m/s (1 Bft) W-SW45 240 0,00 min 0 lux 3,8 C 1,8 C
17.11.2004 06:30 7,1 C 7,2 C 80 % 1021 hPa 0,0 l/m 5,5 m/s (1 Bft) W-SW22.5 240 0,00 min 0 lux 3,9 C -0,4 C
17.11.2004 06:35 7,1 C 7,2 C 80 % 1021 hPa 0,0 l/m 4,3 m/s (1 Bft) W-SW45 245 0,00 min 0 lux 3,9 C 1,5 C
17.11.2004 06:40 7,1 C 7,3 C 80 % 1021 hPa 0,0 l/m 4,2 m/s (1 Bft) W-SW22.5 250 0,00 min 0 lux 3,9 C 1,6 C
17.11.2004 06:45 7,1 C 7,3 C 80 % 1021 hPa 0,0 l/m 3,7 m/s (1 Bft) W-SW45 255 0,00 min 0 lux 3,9 C 2,5 C
17.11.2004 06:50 7,1 C 7,3 C 81 % 1021 hPa 0,0 l/m 3,6 m/s (1 Bft) W-SW22.5 240 0,00 min 0 lux 4,1 C 2,7 C
17.11.2004 06:55 7,1 C 7,3 C 81 % 1021 hPa 0,0 l/m 3,6 m/s (1 Bft) W-SW22.5 240 0,00 min 0 lux 4,1 C 2,7 C
17.11.2004 07:00 7,2 C 7,3 C 81 % 1021 hPa 0,0 l/m 4,0 m/s (1 Bft) W-SW22.5 250 0,00 min 0 lux 4,2 C 2,1 C
17.11.2004 07:05 7,3 C 7,3 C 81 % 1021 hPa 0,0 l/m 3,6 m/s (1 Bft) W-SW45 240 0,00 min 0 lux 4,3 C 2,9 C
17.11.2004 07:10 7,3 C 7,3 C 81 % 1021 hPa 0,0 l/m 3,2 m/s (1 Bft) W-SW22.5 245 0,00 min 0 lux 4,3 C 3,7 C
17.11.2004 07:15 7,4 C 7,3 C 81 % 1021 hPa 0,0 l/m 4,3 m/s (1 Bft) W-SW22.5 240 0,00 min 0 lux 4,4 C 1,8 C
17.11.2004 07:20 7,4 C 7,4 C 81 % 1021 hPa 0,0 l/m 3,6 m/s (1 Bft) W-SW22.5 245 0,00 min 0 lux 4,4 C 3,0 C
17.11.2004 07:25 7,5 C 7,4 C 80 % 1021 hPa 0,0 l/m 4,1 m/s (1 Bft) SW22.5 235 0,00 min 0 lux 4,3 C 2,2 C
17.11.2004 07:30 7,5 C 7,5 C 80 % 1021 hPa 0,0 l/m 6,1 m/s (2 Bft) W-SW22.5 240 0,00 min 0 lux 4,3 C -0,6 C
17.11.2004 07:35 7,6 C 7,5 C 80 % 1021 hPa 0,0 l/m 4,8 m/s (1 Bft) W-SW45 245 0,00 min 0 lux 4,4 C 1,2 C
17.11.2004 07:40 7,6 C 7,5 C 81 % 1020 hPa 0,0 l/m 5,7 m/s (1 Bft) W-SW45 245 0,00 min 55 lux 4,6 C 0,0 C
17.11.2004 07:45 7,6 C 7,6 C 81 % 1020 hPa 0,0 l/m 6,1 m/s (2 Bft) W-SW22.5 250 0,00 min 68 lux 4,6 C -0,5 C
17.11.2004 07:50 7,7 C 7,6 C 81 % 1020 hPa 0,0 l/m 6,1 m/s (2 Bft) W-SW22.5 250 0,00 min 112 lux 4,7 C -0,4 C
17.11.2004 07:55 7,6 C 7,6 C 81 % 1020 hPa 0,0 l/m 6,0 m/s (2 Bft) W-SW45 245 0,00 min 140 lux 4,6 C -0,4 C
17.11.2004 08:00 7,7 C 7,7 C 81 % 1020 hPa 0,0 l/m 7,2 m/s (2 Bft) W-SW45 250 0,00 min 228 lux 4,7 C -1,6 C
17.11.2004 08:05 7,7 C 7,7 C 81 % 1020 hPa 0,0 l/m 6,7 m/s (2 Bft) W-SW22.5 250 0,00 min 361 lux 4,7 C -1,0 C
17.11.2004 08:10 7,8 C 7,8 C 80 % 1020 hPa 0,0 l/m 6,1 m/s (2 Bft) W-SW45 250 0,00 min 416 lux 4,6 C -0,3 C
17.11.2004 08:15 7,9 C 7,8 C 80 % 1020 hPa 0,0 l/m 7,0 m/s (2 Bft) W-SW22.5 245 0,00 min 625 lux 4,7 C -1,1 C
17.11.2004 08:20 7,9 C 7,8 C 80 % 1020 hPa 0,0 l/m 5,8 m/s (2 Bft) W-SW45 245 0,00 min 840 lux 4,7 C 0,2 C
17.11.2004 08:25 7,9 C 7,8 C 80 % 1020 hPa 0,0 l/m 5,4 m/s (1 Bft) W-SW45 240 0,00 min 1,10 klux 4,7 C 0,8 C
17.11.2004 08:30 7,9 C 7,9 C 80 % 1020 hPa 0,0 l/m 5,3 m/s (1 Bft) W-SW45 240 0,00 min 1,12 klux 4,7 C 0,9 C
17.11.2004 08:35 8,0 C 7,9 C 78 % 1020 hPa 0,0 l/m 6,3 m/s (2 Bft) W-SW45 240 0,00 min 1,60 klux 4,4 C -0,2 C
17.11.2004 08:40 8,0 C 8,0 C 78 % 1020 hPa 0,0 l/m 4,3 m/s (1 Bft) SW67.5 230 0,00 min 1,62 klux 4,4 C 2,4 C
17.11.2004 08:45 8,0 C 8,0 C 78 % 1020 hPa 0,0 l/m 4,3 m/s (1 Bft) W-SW22.5 250 0,00 min 2,47 klux 4,4 C 2,6 C
17.11.2004 08:50 8,0 C 8,0 C 78 % 1020 hPa 0,0 l/m 5,3 m/s (1 Bft) W-SW22.5 240 0,00 min 2,44 klux 4,4 C 1,1 C
17.11.2004 08:55 8,1 C 8,1 C 78 % 1020 hPa 0,0 l/m 5,5 m/s (1 Bft) W-SW22.5 240 0,00 min 2,27 klux 4,5 C 0,9 C
17.11.2004 09:00 8,1 C 8,1 C 78 % 1020 hPa 0,0 l/m 5,6 m/s (1 Bft) W-SW45 245 0,00 min 2,94 klux 4,5 C 0,7 C
17.11.2004 09:05 8,1 C 8,1 C 78 % 1021 hPa 0,0 l/m 7,4 m/s (2 Bft) W-SW22.5 245 0,00 min 1,27 klux 4,5 C -1,2 C
17.11.2004 09:10 8,1 C 8,1 C 78 % 1021 hPa 0,0 l/m 4,4 m/s (1 Bft) W-SW45 255 0,00 min 1,06 klux 4,5 C 2,4 C
17.11.2004 09:15 8,2 C 8,2 C 78 % 1021 hPa 0,0 l/m 5,1 m/s (1 Bft) W-SW45 245 0,00 min 1,06 klux 4,6 C 1,6 C
17.11.2004 09:20 8,2 C 8,2 C 78 % 1021 hPa 0,0 l/m 5,6 m/s (1 Bft) W-SW22.5 245 0,00 min 1,28 klux 4,6 C 1,0 C
17.11.2004 09:25 8,2 C 8,2 C 78 % 1021 hPa 0,0 l/m 6,0 m/s (2 Bft) W-SW45 245 0,00 min 2,07 klux 4,6 C 0,5 C
17.11.2004 09:30 8,3 C 8,3 C 78 % 1021 hPa 0,0 l/m 5,7 m/s (1 Bft) W-SW45 245 0,00 min 2,07 klux 4,7 C 0,9 C
17.11.2004 09:35 8,3 C 8,3 C 78 % 1021 hPa 0,0 l/m 4,2 m/s (1 Bft) W-SW22.5 250 0,00 min 4,44 klux 4,7 C 3,1 C
17.11.2004 09:40 8,4 C 8,4 C 78 % 1020 hPa 0,0 l/m 5,3 m/s (1 Bft) W-SW22.5 245 0,00 min 3,88 klux 4,8 C 1,6 C
17.11.2004 09:45 8,3 C 8,4 C 78 % 1021 hPa 0,0 l/m 3,8 m/s (1 Bft) W-SW45 245 0,00 min 3,94 klux 4,7 C 3,7 C
17.11.2004 09:50 8,4 C 8,4 C 78 % 1021 hPa 0,0 l/m 5,4 m/s (1 Bft) W-SW45 240 0,00 min 2,55 klux 4,8 C 1,4 C
17.11.2004 09:55 8,3 C 8,4 C 79 % 1021 hPa 0,0 l/m 4,8 m/s (1 Bft) W-SW22.5 250 0,00 min 2,38 klux 4,9 C 2,1 C
17.11.2004 10:00 8,4 C 8,4 C 79 % 1021 hPa 0,0 l/m 5,8 m/s (2 Bft) W-SW45 245 0,00 min 2,38 klux 5,0 C 0,9 C
17.11.2004 10:05 8,4 C 8,5 C 79 % 1021 hPa 0,0 l/m 4,3 m/s (1 Bft) W-SW45 250 0,00 min 2,45 klux 5,0 C 3,1 C
17.11.2004 10:10 8,4 C 8,5 C 79 % 1020 hPa 0,0 l/m 5,9 m/s (2 Bft) W-SW45 245 0,00 min 3,38 klux 5,0 C 0,7 C
17.11.2004 10:15 8,5 C 8,5 C 79 % 1020 hPa 0,0 l/m 6,9 m/s (2 Bft) W-SW45 250 0,00 min 2,56 klux 5,1 C -0,1 C
17.11.2004 10:20 8,4 C 8,6 C 79 % 1020 hPa 0,0 l/m 4,9 m/s (1 Bft) W-SW45 250 0,00 min 3,08 klux 5,0 C 2,1 C
17.11.2004 10:25 8,5 C 8,6 C 79 % 1020 hPa 0,0 l/m 5,3 m/s (1 Bft) W-SW45 245 0,00 min 4,57 klux 5,1 C 1,7 C
17.11.2004 10:30 8,5 C 8,6 C 79 % 1020 hPa 0,0 l/m 6,2 m/s (2 Bft) W-SW22.5 245 0,00 min 2,52 klux 5,1 C 0,6 C
17.11.2004 10:35 8,5 C 8,6 C 79 % 1020 hPa 0,0 l/m 4,9 m/s (1 Bft) W-SW45 245 0,00 min 2,88 klux 5,1 C 2,3 C
17.11.2004 10:40 8,6 C 8,6 C 79 % 1020 hPa 0,0 l/m 6,8 m/s (2 Bft) W-SW22.5 250 0,00 min 4,42 klux 5,2 C 0,0 C
17.11.2004 10:45 8,6 C 8,7 C 79 % 1020 hPa 0,0 l/m 5,7 m/s (1 Bft) W-SW22.5 250 0,00 min 6,68 klux 5,2 C 1,3 C
17.11.2004 10:50 8,7 C 8,7 C 79 % 1020 hPa 0,0 l/m 5,0 m/s (1 Bft) W-SW45 250 0,00 min 8,62 klux 5,3 C 2,3 C
17.11.2004 10:55 8,8 C 8,8 C 78 % 1020 hPa 0,0 l/m 5,0 m/s (1 Bft) W-SW45 250 0,00 min 6,29 klux 5,2 C 2,5 C
17.11.2004 11:00 8,9 C 8,8 C 78 % 1020 hPa 0,0 l/m 5,2 m/s (1 Bft) W-SW22.5 250 0,00 min 5,69 klux 5,3 C 2,3 C
17.11.2004 11:05 9,0 C 8,9 C 77 % 1020 hPa 0,0 l/m 4,4 m/s (1 Bft) W-SW22.5 245 0,00 min 7,94 klux 5,2 C 3,5 C
17.11.2004 11:10 9,1 C 9,0 C 77 % 1020 hPa 0,0 l/m 5,6 m/s (1 Bft) W-SW45 240 0,00 min 7,52 klux 5,3 C 2,1 C
17.11.2004 11:15 9,1 C 9,0 C 77 % 1020 hPa 0,0 l/m 5,3 m/s (1 Bft) W-SW45 240 0,00 min 5,02 klux 5,3 C 2,4 C
17.11.2004 11:20 9,1 C 9,1 C 77 % 1020 hPa 0,0 l/m 7,8 m/s (2 Bft) W-SW45 245 0,00 min 6,18 klux 5,3 C -0,2 C
17.11.2004 11:25 9,3 C 9,1 C 76 % 1020 hPa 0,0 l/m 7,3 m/s (2 Bft) W-SW45 250 0,00 min 5,83 klux 5,3 C 0,6 C
17.11.2004 11:30 9,5 C 9,2 C 76 % 1020 hPa 0,0 l/m 6,6 m/s (2 Bft) W-SW22.5 245 0,00 min 10,0 klux 5,5 C 1,5 C
17.11.2004 11:35 9,5 C 9,3 C 76 % 1020 hPa 0,0 l/m 8,4 m/s (2 Bft) W-SW45 250 0,00 min 10,9 klux 5,5 C -0,1 C
17.11.2004 11:40 9,8 C 9,5 C 75 % 1020 hPa 0,0 l/m 7,3 m/s (2 Bft) W-SW22.5 240 0,00 min 13,1 klux 5,6 C 1,3 C
17.11.2004 11:45 9,9 C 9,6 C 74 % 1020 hPa 0,0 l/m 8,9 m/s (2 Bft) W-SW45 245 0,00 min 13,2 klux 5,5 C 0,1 C
17.11.2004 11:50 10,0 C 9,7 C 73 % 1020 hPa 0,0 l/m 7,8 m/s (2 Bft) W-SW22.5 250 0,00 min 13,2 klux 5,4 C 1,1 C
17.11.2004 11:55 10,1 C 9,9 C 73 % 1020 hPa 0,0 l/m 8,2 m/s (2 Bft) W-SW22.5 250 0,00 min 18,5 klux 5,5 C 0,9 C
17.11.2004 12:00 10,2 C 10,1 C 73 % 1020 hPa 0,0 l/m 11,0 m/s (2 Bft) W-SW22.5 255 0,00 min 15,5 klux 5,6 C -0,8 C
17.11.2004 12:05 10,2 C 10,2 C 73 % 1020 hPa 0,0 l/m 9,8 m/s (2 Bft) W-SW45 245 0,00 min 17,7 klux 5,6 C -0,0 C
17.11.2004 12:10 10,1 C 10,2 C 73 % 1020 hPa 0,0 l/m 7,3 m/s (2 Bft) W-SW22.5 250 0,00 min 8,98 klux 5,5 C 1,7 C
17.11.2004 12:15 10,2 C 10,3 C 73 % 1020 hPa 0,0 l/m 6,9 m/s (2 Bft) W-SW45 250 0,00 min 24,2 klux 5,6 C 2,1 C
17.11.2004 12:20 10,3 C 10,4 C 73 % 1020 hPa 0,0 l/m 7,9 m/s (2 Bft) W-SW45 250 0,00 min 24,1 klux 5,7 C 1,4 C
17.11.2004 12:25 10,4 C 10,5 C 73 % 1019 hPa 0,0 l/m 8,0 m/s (2 Bft) W-SW22.5 245 0,00 min 13,7 klux 5,8 C 1,5 C
17.11.2004 12:30 10,2 C 10,5 C 73 % 1019 hPa 0,0 l/m 7,3 m/s (2 Bft) W-SW45 240 0,00 min 9,3 klux 5,6 C 1,8 C
17.11.2004 12:35 10,2 C 10,5 C 73 % 1019 hPa 0,0 l/m 7,4 m/s (2 Bft) W-SW45 250 0,00 min 11,7 klux 5,6 C 1,7 C
17.11.2004 12:40 10,2 C 10,5 C 73 % 1019 hPa 0,0 l/m 6,1 m/s (2 Bft) W-SW22.5 250 0,00 min 12,5 klux 5,6 C 2,9 C
17.11.2004 12:45 10,3 C 10,5 C 73 % 1019 hPa 0,0 l/m 8,5 m/s (2 Bft) W-SW22.5 245 0,00 min 10,4 klux 5,7 C 0,9 C
17.11.2004 12:50 10,3 C 10,5 C 73 % 1019 hPa 0,0 l/m 8,3 m/s (2 Bft) W-SW22.5 245 0,00 min 13,4 klux 5,7 C 1,1 C
17.11.2004 12:55 10,3 C 10,5 C 73 % 1019 hPa 0,0 l/m 9,1 m/s (2 Bft) W-SW45 245 0,00 min 13,5 klux 5,7 C 0,5 C
17.11.2004 13:00 10,3 C 10,5 C 73 % 1019 hPa 0,0 l/m 8,4 m/s (2 Bft) W-SW45 245 0,00 min 11,5 klux 5,7 C 1,1 C
17.11.2004 13:05 10,4 C 10,6 C 73 % 1019 hPa 0,0 l/m 10,2 m/s (2 Bft) W-SW22.5 250 0,00 min 11,5 klux 5,8 C -0,0 C
17.11.2004 13:10 10,5 C 10,6 C 73 % 1019 hPa 0,0 l/m 8,5 m/s (2 Bft) W-SW45 250 0,00 min 14,5 klux 5,9 C 1,3 C
17.11.2004 13:15 10,5 C 10,6 C 73 % 1019 hPa 0,0 l/m 8,2 m/s (2 Bft) W-SW22.5 250 0,00 min 14,8 klux 5,9 C 1,5 C
17.11.2004 13:20 10,5 C 10,7 C 73 % 1019 hPa 0,0 l/m 8,6 m/s (2 Bft) W-SW22.5 245 0,00 min 10,8 klux 5,9 C 1,1 C
17.11.2004 13:25 10,5 C 10,7 C 73 % 1019 hPa 0,0 l/m 8,2 m/s (2 Bft) W-SW22.5 245 0,00 min 12,6 klux 5,9 C 1,4 C
17.11.2004 13:30 10,6 C 10,8 C 73 % 1019 hPa 0,0 l/m 8,0 m/s (2 Bft) W-SW22.5 245 0,00 min 13,7 klux 6,0 C 1,7 C
17.11.2004 13:35 10,5 C 10,8 C 73 % 1019 hPa 0,0 l/m 9,5 m/s (2 Bft) W-SW22.5 245 0,00 min 13,7 klux 5,9 C 0,6 C
17.11.2004 13:40 10,6 C 10,8 C 74 % 1019 hPa 0,0 l/m 9,6 m/s (2 Bft) W-SW45 255 0,00 min 13,3 klux 6,2 C 0,6 C
17.11.2004 13:45 10,5 C 10,8 C 74 % 1019 hPa 0,0 l/m 8,5 m/s (2 Bft) W-SW45 250 0,00 min 12,7 klux 6,1 C 1,2 C
17.11.2004 13:50 10,6 C 10,8 C 74 % 1019 hPa 0,0 l/m 6,8 m/s (2 Bft) W-SW45 250 0,00 min 11,3 klux 6,2 C 2,7 C
17.11.2004 13:55 10,7 C 10,9 C 73 % 1019 hPa 0,0 l/m 7,0 m/s (2 Bft) W-SW45 250 0,00 min 10,0 klux 6,1 C 2,7 C
17.11.2004 14:00 10,6 C 10,8 C 73 % 1019 hPa 0,0 l/m 7,5 m/s (2 Bft) W-SW22.5 245 0,00 min 6,93 klux 6,0 C 2,2 C
17.11.2004 14:05 10,6 C 10,8 C 73 % 1019 hPa 0,0 l/m 7,3 m/s (2 Bft) W-SW22.5 255 0,00 min 5,98 klux 6,0 C 2,3 C
17.11.2004 14:10 10,6 C 10,8 C 73 % 1019 hPa 0,0 l/m 9,3 m/s (2 Bft) W-SW22.5 250 0,00 min 5,30 klux 6,0 C 0,9 C
17.11.2004 14:15 10,5 C 10,8 C 74 % 1019 hPa 0,0 l/m 10,1 m/s (2 Bft) W-SW45 250 0,00 min 4,32 klux 6,1 C 0,2 C
17.11.2004 14:20 10,5 C 10,7 C 74 % 1019 hPa 0,0 l/m 9,1 m/s (2 Bft) W-SW22.5 250 0,00 min 3,15 klux 6,1 C 0,8 C
17.11.2004 14:25 10,5 C 10,6 C 75 % 1019 hPa 0,0 l/m 8,6 m/s (2 Bft) W-SW45 250 0,00 min 3,02 klux 6,3 C 1,2 C
17.11.2004 14:30 10,4 C 10,6 C 76 % 1019 hPa 0,0 l/m 7,8 m/s (2 Bft) W-SW22.5 250 0,00 min 4,53 klux 6,4 C 1,7 C
17.11.2004 14:35 10,4 C 10,6 C 76 % 1019 hPa 0,0 l/m 7,3 m/s (2 Bft) W-SW45 245 0,00 min 7,51 klux 6,4 C 2,1 C
17.11.2004 14:40 10,6 C 10,6 C 74 % 1019 hPa 0,0 l/m 8,3 m/s (2 Bft) W45 260 0,00 min 6,45 klux 6,2 C 1,5 C
17.11.2004 14:45 10,6 C 10,6 C 74 % 1018 hPa 0,0 l/m 6,6 m/s (2 Bft) W-SW45 250 0,00 min 4,71 klux 6,2 C 2,9 C
17.11.2004 14:50 10,6 C 10,6 C 73 % 1018 hPa 0,0 l/m 6,6 m/s (2 Bft) W-SW45 250 0,00 min 5,35 klux 6,0 C 3,0 C
17.11.2004 14:55 10,7 C 10,6 C 71 % 1018 hPa 0,0 l/m 6,1 m/s (2 Bft) W-SW45 250 0,00 min 4,63 klux 5,7 C 3,6 C
17.11.2004 15:00 10,7 C 10,6 C 71 % 1018 hPa 0,0 l/m 6,7 m/s (2 Bft) W-SW22.5 250 0,00 min 3,76 klux 5,7 C 3,0 C
17.11.2004 15:05 10,7 C 10,6 C 71 % 1018 hPa 0,0 l/m 6,5 m/s (2 Bft) W-SW22.5 250 0,00 min 2,41 klux 5,7 C 3,2 C
17.11.2004 15:10 10,7 C 10,6 C 71 % 1018 hPa 0,0 l/m 6,7 m/s (2 Bft) W-SW45 245 0,00 min 932 lux 5,7 C 3,0 C
17.11.2004 15:15 10,7 C 10,6 C 71 % 1018 hPa 0,0 l/m 6,7 m/s (2 Bft) W-SW22.5 245 0,00 min 928 lux 5,7 C 3,0 C
17.11.2004 15:20 10,6 C 10,6 C 71 % 1018 hPa 0,0 l/m 7,8 m/s (2 Bft) W-SW45 240 0,00 min 1,05 klux 5,6 C 1,9 C
17.11.2004 15:25 10,6 C 10,6 C 72 % 1018 hPa 0,0 l/m 5,8 m/s (2 Bft) W-SW22.5 245 0,00 min 897 lux 5,8 C 3,8 C
17.11.2004 15:30 10,6 C 10,6 C 72 % 1018 hPa 0,0 l/m 8,1 m/s (2 Bft) W-SW22.5 250 0,00 min 977 lux 5,8 C 1,6 C
17.11.2004 15:35 10,5 C 10,6 C 72 % 1018 hPa 0,0 l/m 6,1 m/s (2 Bft) W-SW45 250 0,00 min 930 lux 5,7 C 3,3 C
17.11.2004 15:40 10,5 C 10,6 C 73 % 1018 hPa 0,0 l/m 5,7 m/s (1 Bft) W-SW22.5 240 0,00 min 910 lux 5,9 C 3,8 C
17.11.2004 15:45 10,5 C 10,6 C 73 % 1018 hPa 0,0 l/m 6,4 m/s (2 Bft) W-SW22.5 250 0,00 min 848 lux 5,9 C 3,0 C
17.11.2004 15:50 10,5 C 10,6 C 72 % 1018 hPa 0,0 l/m 5,2 m/s (1 Bft) W-SW22.5 245 0,00 min 545 lux 5,7 C 4,3 C
17.11.2004 15:55 10,5 C 10,5 C 72 % 1018 hPa 0,0 l/m 7,3 m/s (2 Bft) W-SW22.5 250 0,00 min 904 lux 5,7 C 2,2 C
17.11.2004 16:00 10,5 C 10,6 C 72 % 1018 hPa 0,0 l/m 6,7 m/s (2 Bft) W-SW22.5 250 0,00 min 1,13 klux 5,7 C 2,8 C
17.11.2004 16:05 10,5 C 10,6 C 72 % 1018 hPa 0,0 l/m 8,3 m/s (2 Bft) W-SW22.5 240 0,00 min 2,23 klux 5,7 C 1,4 C
17.11.2004 16:10 10,5 C 10,5 C 72 % 1018 hPa 0,0 l/m 7,1 m/s (2 Bft) W-SW22.5 245 0,00 min 1,70 klux 5,7 C 2,3 C
17.11.2004 16:15 10,5 C 10,5 C 72 % 1018 hPa 0,0 l/m 7,1 m/s (2 Bft) W-SW22.5 245 0,00 min 954 lux 5,7 C 2,3 C
17.11.2004 16:20 10,6 C 10,5 C 71 % 1018 hPa 0,0 l/m 8,0 m/s (2 Bft) W-SW45 245 0,00 min 899 lux 5,6 C 1,8 C
17.11.2004 16:25 10,5 C 10,5 C 71 % 1018 hPa 0,0 l/m 6,6 m/s (2 Bft) SW22.5 235 0,00 min 804 lux 5,5 C 2,9 C
17.11.2004 16:30 10,4 C 10,5 C 71 % 1018 hPa 0,0 l/m 6,8 m/s (2 Bft) W-SW45 250 0,00 min 1,06 klux 5,4 C 2,5 C
17.11.2004 16:35 10,5 C 10,5 C 70 % 1018 hPa 0,0 l/m 8,1 m/s (2 Bft) W-SW22.5 250 0,00 min 467 lux 5,3 C 1,5 C
17.11.2004 16:40 10,5 C 10,5 C 70 % 1018 hPa 0,0 l/m 8,8 m/s (2 Bft) W-SW45 240 0,00 min 171 lux 5,3 C 1,0 C
17.11.2004 16:45 10,5 C 10,5 C 70 % 1018 hPa 0,0 l/m 7,8 m/s (2 Bft) W-SW22.5 250 0,00 min 92 lux 5,3 C 1,8 C
17.11.2004 16:50 10,5 C 10,5 C 70 % 1018 hPa 0,0 l/m 6,4 m/s (2 Bft) W-SW45 250 0,00 min 90 lux 5,3 C 3,0 C
17.11.2004 16:55 10,4 C 10,5 C 70 % 1018 hPa 0,0 l/m 7,4 m/s (2 Bft) W-SW22.5 245 0,00 min 71 lux 5,2 C 1,9 C
17.11.2004 17:00 10,4 C 10,4 C 71 % 1018 hPa 0,0 l/m 6,1 m/s (2 Bft) W-SW45 245 0,00 min 34 lux 5,4 C 3,2 C
17.11.2004 17:05 10,3 C 10,4 C 71 % 1018 hPa 0,0 l/m 6,4 m/s (2 Bft) W-SW45 245 0,00 min 16 lux 5,3 C 2,8 C
17.11.2004 17:10 10,4 C 10,4 C 71 % 1018 hPa 0,0 l/m 6,3 m/s (2 Bft) W-SW22.5 250 0,00 min 12 lux 5,4 C 3,0 C
17.11.2004 17:15 10,3 C 10,4 C 71 % 1018 hPa 0,0 l/m 7,3 m/s (2 Bft) W-SW45 245 0,00 min 8 lux 5,3 C 1,9 C
17.11.2004 17:20 10,3 C 10,4 C 71 % 1018 hPa 0,0 l/m 5,5 m/s (1 Bft) W-SW22.5 245 0,00 min 4 lux 5,3 C 3,7 C
17.11.2004 17:25 10,3 C 10,4 C 71 % 1018 hPa 0,0 l/m 6,1 m/s (2 Bft) W-SW45 240 0,00 min 2 lux 5,3 C 3,1 C
17.11.2004 17:30 10,2 C 10,3 C 71 % 1018 hPa 0,0 l/m 6,8 m/s (2 Bft) W-SW45 245 0,00 min 1 lux 5,2 C 2,3 C
17.11.2004 17:35 10,2 C 10,4 C 71 % 1018 hPa 0,0 l/m 7,9 m/s (2 Bft) W-SW22.5 250 0,00 min 0 lux 5,2 C 1,2 C
17.11.2004 17:40 10,1 C 10,3 C 71 % 1018 hPa 0,0 l/m 7,2 m/s (2 Bft) W-SW45 250 0,00 min 0 lux 5,1 C 1,7 C
17.11.2004 17:45 10,1 C 10,3 C 72 % 1018 hPa 0,0 l/m 9,6 m/s (2 Bft) W-SW45 245 0,00 min 0 lux 5,3 C -0,1 C
17.11.2004 17:50 10,0 C 10,3 C 72 % 1018 hPa 0,0 l/m 5,9 m/s (2 Bft) W-SW22.5 245 0,00 min 0 lux 5,2 C 2,9 C
17.11.2004 17:55 10,0 C 10,2 C 73 % 1018 hPa 0,0 l/m 6,8 m/s (2 Bft) W-SW22.5 250 0,00 min 0 lux 5,4 C 1,9 C
17.11.2004 18:00 9,9 C 10,2 C 75 % 1018 hPa 0,0 l/m 6,6 m/s (2 Bft) W-SW45 245 0,00 min 0 lux 5,7 C 2,0 C
17.11.2004 18:05 9,8 C 10,2 C 75 % 1018 hPa 0,0 l/m 6,3 m/s (2 Bft) W-SW22.5 245 0,00 min 0 lux 5,6 C 2,2 C
17.11.2004 18:10 9,8 C 10,1 C 76 % 1018 hPa 0,0 l/m 4,8 m/s (1 Bft) W-SW22.5 250 0,00 min 0 lux 5,8 C 3,9 C
17.11.2004 18:15 9,8 C 10,1 C 76 % 1018 hPa 0,0 l/m 7,0 m/s (2 Bft) W-SW22.5 250 0,00 min 0 lux 5,8 C 1,5 C
17.11.2004 18:20 9,7 C 10,1 C 77 % 1018 hPa 0,0 l/m 5,4 m/s (1 Bft) W-SW45 250 0,00 min 0 lux 5,9 C 3,1 C
17.11.2004 18:25 9,7 C 10,0 C 77 % 1018 hPa 0,0 l/m 7,1 m/s (2 Bft) W-SW22.5 250 0,00 min 0 lux 5,9 C 1,3 C
17.11.2004 18:30 9,7 C 9,9 C 77 % 1018 hPa 0,0 l/m 5,4 m/s (1 Bft) W-SW22.5 255 0,00 min 0 lux 5,9 C 3,1 C
17.11.2004 18:35 9,7 C 9,9 C 77 % 1018 hPa 0,0 l/m 5,0 m/s (1 Bft) W-SW22.5 250 0,00 min 0 lux 5,9 C 3,6 C
17.11.2004 18:40 9,7 C 9,9 C 78 % 1018 hPa 0,0 l/m 6,0 m/s (2 Bft) W-SW22.5 245 0,00 min 0 lux 6,1 C 2,4 C
17.11.2004 18:45 9,7 C 9,9 C 78 % 1018 hPa 0,0 l/m 5,1 m/s (1 Bft) W-SW45 250 0,00 min 0 lux 6,1 C 3,5 C
17.11.2004 18:50 9,7 C 9,9 C 78 % 1018 hPa 0,0 l/m 6,8 m/s (2 Bft) W-SW22.5 250 0,00 min 0 lux 6,1 C 1,6 C
17.11.2004 18:55 9,7 C 9,8 C 78 % 1018 hPa 0,0 l/m 6,0 m/s (2 Bft) W-SW22.5 240 0,00 min 0 lux 6,1 C 2,4 C
17.11.2004 19:00 9,7 C 9,8 C 78 % 1018 hPa 0,0 l/m 7,1 m/s (2 Bft) W-SW22.5 255 0,00 min 0 lux 6,1 C 1,3 C
17.11.2004 19:05 9,7 C 9,8 C 79 % 1018 hPa 0,0 l/m 6,4 m/s (2 Bft) W-SW22.5 255 0,00 min 0 lux 6,2 C 1,9 C
17.11.2004 19:10 9,6 C 9,8 C 79 % 1017 hPa 0,0 l/m 5,5 m/s (1 Bft) W-SW22.5 245 0,00 min 0 lux 6,1 C 2,8 C
17.11.2004 19:15 9,6 C 9,8 C 80 % 1018 hPa 0,0 l/m 3,7 m/s (1 Bft) W-SW22.5 255 0,00 min 0 lux 6,3 C 5,4 C
17.11.2004 19:20 9,5 C 9,8 C 81 % 1018 hPa 0,4 l/m 5,5 m/s (1 Bft) W-SW45 245 0,00 min 0 lux 6,4 C 2,7 C
17.11.2004 19:25 9,5 C 9,8 C 82 % 1018 hPa 0,0 l/m 5,2 m/s (1 Bft) W-SW22.5 245 0,00 min 0 lux 6,6 C 3,1 C
17.11.2004 19:30 9,4 C 9,7 C 82 % 1017 hPa 0,0 l/m 4,3 m/s (1 Bft) W-SW22.5 250 0,00 min 0 lux 6,5 C 4,2 C
17.11.2004 19:35 9,4 C 9,7 C 83 % 1017 hPa 0,0 l/m 4,8 m/s (1 Bft) W-SW45 245 0,00 min 0 lux 6,7 C 3,4 C
17.11.2004 19:40 9,3 C 9,7 C 83 % 1017 hPa 0,0 l/m 4,6 m/s (1 Bft) W-SW22.5 245 0,00 min 0 lux 6,6 C 3,7 C
17.11.2004 19:45 9,4 C 9,7 C 84 % 1017 hPa 0,0 l/m 3,5 m/s (1 Bft) W-SW45 245 0,00 min 0 lux 6,8 C 5,5 C
17.11.2004 19:50 9,4 C 9,6 C 84 % 1017 hPa 0,0 l/m 3,3 m/s (1 Bft) W-SW22.5 245 0,00 min 0 lux 6,8 C 5,9 C
17.11.2004 19:55 9,4 C 9,6 C 84 % 1017 hPa 0,0 l/m 4,5 m/s (1 Bft) W-SW22.5 245 0,00 min 0 lux 6,8 C 3,9 C
17.11.2004 20:00 9,4 C 9,6 C 84 % 1017 hPa 0,0 l/m 4,1 m/s (1 Bft) W-SW22.5 250 0,00 min 0 lux 6,8 C 4,5 C
17.11.2004 20:05 9,5 C 9,6 C 84 % 1017 hPa 0,0 l/m 4,4 m/s (1 Bft) W-SW22.5 245 0,00 min 0 lux 6,9 C 4,1 C
17.11.2004 20:10 9,5 C 9,6 C 84 % 1017 hPa 0,0 l/m 5,8 m/s (2 Bft) W-SW45 245 0,00 min 0 lux 6,9 C 2,3 C
17.11.2004 20:15 9,5 C 9,6 C 84 % 1017 hPa 0,0 l/m 4,6 m/s (1 Bft) W-SW45 245 0,00 min 0 lux 6,9 C 3,9 C
17.11.2004 20:20 9,5 C 9,6 C 84 % 1017 hPa 0,0 l/m 5,5 m/s (1 Bft) W-SW22.5 250 0,00 min 0 lux 6,9 C 2,7 C
17.11.2004 20:25 9,5 C 9,6 C 84 % 1017 hPa 0,0 l/m 5,3 m/s (1 Bft) W-SW22.5 250 0,00 min 0 lux 6,9 C 2,9 C
17.11.2004 20:30 9,6 C 9,6 C 84 % 1017 hPa 0,0 l/m 5,1 m/s (1 Bft) W-SW22.5 240 0,00 min 0 lux 7,0 C 3,4 C
17.11.2004 20:35 9,5 C 9,6 C 84 % 1017 hPa 0,0 l/m 4,1 m/s (1 Bft) W-SW22.5 250 0,00 min 0 lux 6,9 C 4,7 C
17.11.2004 20:40 9,5 C 9,6 C 84 % 1017 hPa 0,0 l/m 4,9 m/s (1 Bft) W-SW22.5 250 0,00 min 0 lux 6,9 C 3,5 C
17.11.2004 20:45 9,6 C 9,6 C 83 % 1017 hPa 0,0 l/m 4,2 m/s (1 Bft) W-SW22.5 240 0,00 min 0 lux 6,9 C 4,6 C
17.11.2004 20:50 9,6 C 9,6 C 83 % 1017 hPa 0,0 l/m 5,0 m/s (1 Bft) W-SW45 250 0,00 min 0 lux 6,9 C 3,5 C
17.11.2004 20:55 9,6 C 9,7 C 83 % 1017 hPa 0,0 l/m 4,5 m/s (1 Bft) W-SW45 245 0,00 min 0 lux 6,9 C 4,2 C
17.11.2004 21:00 9,6 C 9,7 C 83 % 1017 hPa 0,0 l/m 5,7 m/s (1 Bft) W-SW45 245 0,00 min 0 lux 6,9 C 2,6 C
17.11.2004 21:05 9,6 C 9,6 C 82 % 1017 hPa 0,0 l/m 6,3 m/s (2 Bft) W-SW22.5 250 0,00 min 0 lux 6,7 C 2,0 C
17.11.2004 21:10 9,6 C 9,6 C 82 % 1017 hPa 0,0 l/m 9,3 m/s (2 Bft) W-SW22.5 255 0,00 min 0 lux 6,7 C -0,6 C
17.11.2004 21:15 9,6 C 9,7 C 83 % 1017 hPa 0,0 l/m 7,0 m/s (2 Bft) W-SW45 240 0,00 min 0 lux 6,9 C 1,2 C
17.11.2004 21:20 9,5 C 9,6 C 83 % 1017 hPa 0,0 l/m 5,5 m/s (1 Bft) W-SW45 240 0,00 min 0 lux 6,8 C 2,7 C
17.11.2004 21:25 9,5 C 9,6 C 83 % 1017 hPa 0,0 l/m 6,9 m/s (2 Bft) W-SW22.5 245 0,00 min 0 lux 6,8 C 1,2 C
17.11.2004 21:30 9,5 C 9,6 C 83 % 1017 hPa 0,0 l/m 7,3 m/s (2 Bft) W-SW22.5 245 0,00 min 0 lux 6,8 C 0,9 C
17.11.2004 21:35 9,5 C 9,6 C 83 % 1017 hPa 0,0 l/m 6,0 m/s (2 Bft) W-SW45 245 0,00 min 0 lux 6,8 C 2,2 C
17.11.2004 21:40 9,5 C 9,6 C 83 % 1017 hPa 0,0 l/m 8,8 m/s (2 Bft) SW67.5 235 0,00 min 0 lux 6,8 C -0,4 C
17.11.2004 21:45 9,4 C 9,6 C 83 % 1017 hPa 0,0 l/m 6,1 m/s (2 Bft) W-SW22.5 250 0,00 min 0 lux 6,7 C 1,9 C
17.11.2004 21:50 9,5 C 9,6 C 83 % 1017 hPa 0,0 l/m 6,3 m/s (2 Bft) W-SW22.5 245 0,00 min 0 lux 6,8 C 1,9 C
17.11.2004 21:55 9,4 C 9,6 C 83 % 1017 hPa 0,0 l/m 5,2 m/s (1 Bft) W-SW22.5 250 0,00 min 0 lux 6,7 C 3,0 C
17.11.2004 22:00 9,3 C 9,5 C 83 % 1017 hPa 0,0 l/m 5,6 m/s (1 Bft) W-SW22.5 250 0,00 min 0 lux 6,6 C 2,3 C
17.11.2004 22:05 9,3 C 9,5 C 83 % 1016 hPa 0,0 l/m 6,0 m/s (2 Bft) W-SW22.5 255 0,00 min 0 lux 6,6 C 1,9 C
17.11.2004 22:10 9,2 C 9,5 C 84 % 1016 hPa 0,0 l/m 6,0 m/s (2 Bft) W-SW22.5 250 0,00 min 0 lux 6,6 C 1,7 C
17.11.2004 22:15 9,2 C 9,5 C 84 % 1016 hPa 0,0 l/m 5,9 m/s (2 Bft) W-SW45 240 0,00 min 0 lux 6,6 C 1,8 C
17.11.2004 22:20 9,1 C 9,4 C 84 % 1017 hPa 0,0 l/m 6,0 m/s (2 Bft) W-SW22.5 240 0,00 min 0 lux 6,5 C 1,6 C
17.11.2004 22:25 9,1 C 9,3 C 85 % 1017 hPa 0,0 l/m 5,3 m/s (1 Bft) W-SW45 250 0,00 min 0 lux 6,7 C 2,4 C
17.11.2004 22:30 9,0 C 9,3 C 85 % 1016 hPa 0,0 l/m 4,4 m/s (1 Bft) W-SW22.5 245 0,00 min 0 lux 6,6 C 3,6 C
17.11.2004 22:35 9,0 C 9,2 C 86 % 1016 hPa 0,0 l/m 4,9 m/s (1 Bft) W-SW22.5 245 0,00 min 0 lux 6,8 C 2,9 C
17.11.2004 22:40 9,0 C 9,2 C 86 % 1016 hPa 0,0 l/m 3,6 m/s (1 Bft) W-SW45 250 0,00 min 0 lux 6,8 C 4,8 C
17.11.2004 22:45 9,0 C 9,1 C 86 % 1016 hPa 0,0 l/m 5,4 m/s (1 Bft) W-SW45 250 0,00 min 0 lux 6,8 C 2,2 C
17.11.2004 22:50 9,0 C 9,1 C 86 % 1016 hPa 0,0 l/m 5,3 m/s (1 Bft) W-SW22.5 250 0,00 min 0 lux 6,8 C 2,4 C
17.11.2004 22:55 9,0 C 9,1 C 85 % 1016 hPa 0,0 l/m 3,3 m/s (1 Bft) W-SW45 250 0,00 min 0 lux 6,6 C 5,4 C
17.11.2004 23:00 8,9 C 9,1 C 86 % 1016 hPa 0,0 l/m 4,8 m/s (1 Bft) W-SW22.5 250 0,00 min 0 lux 6,7 C 2,9 C
17.11.2004 23:05 9,0 C 9,1 C 85 % 1016 hPa 0,0 l/m 5,1 m/s (1 Bft) W-SW22.5 245 0,00 min 0 lux 6,6 C 2,6 C
17.11.2004 23:10 9,0 C 9,1 C 84 % 1016 hPa 0,0 l/m 6,0 m/s (2 Bft) W-SW22.5 250 0,00 min 0 lux 6,4 C 1,4 C
17.11.2004 23:15 8,9 C 9,1 C 86 % 1016 hPa 0,4 l/m 4,7 m/s (1 Bft) W-SW22.5 250 0,00 min 0 lux 6,7 C 3,0 C
17.11.2004 23:20 8,9 C 9,0 C 86 % 1016 hPa 0,0 l/m 4,9 m/s (1 Bft) W-SW22.5 250 0,00 min 0 lux 6,7 C 2,7 C
17.11.2004 23:25 8,9 C 9,0 C 86 % 1016 hPa 0,0 l/m 4,5 m/s (1 Bft) SW22.5 235 0,00 min 0 lux 6,7 C 3,3 C
17.11.2004 23:30 8,9 C 9,0 C 86 % 1016 hPa 0,0 l/m 4,3 m/s (1 Bft) W-SW22.5 250 0,00 min 0 lux 6,7 C 3,7 C
17.11.2004 23:35 8,9 C 8,9 C 87 % 1016 hPa 0,0 l/m 4,8 m/s (1 Bft) W-SW45 250 0,00 min 0 lux 6,9 C 2,9 C
17.11.2004 23:40 8,9 C 9,0 C 87 % 1016 hPa 0,0 l/m 5,3 m/s (1 Bft) W-SW22.5 245 0,00 min 0 lux 6,9 C 2,2 C
17.11.2004 23:45 8,9 C 8,9 C 87 % 1016 hPa 0,0 l/m 4,7 m/s (1 Bft) W-SW22.5 245 0,00 min 0 lux 6,9 C 3,0 C
17.11.2004 23:50 8,9 C 8,9 C 87 % 1016 hPa 0,0 l/m 4,8 m/s (1 Bft) W-SW22.5 250 0,00 min 0 lux 6,9 C 2,8 C
17.11.2004 23:55 8,8 C 8,9 C 88 % 1016 hPa 0,0 l/m 4,3 m/s (1 Bft) W-SW45 250 0,00 min 0 lux 6,9 C 3,5 C
_ Min-Zeit 01:50 04:00 16:35 22:05 - 02:10 - - - - 01:20 05:00
Minimum _ 6,9 C 7,1 C 70 % 1016 hPa - 2,0 m/s (2 Bft) - - - - 3,5 C -1,8 C
_ Max-Zeit 13:55 13:55 23:55 00:00 19:20 12:00 - - 00:00 12:15 20:30 02:10
Maximum _ 10,7 C 10,9 C 88 % 1024 hPa 0,4 l/m 11,0 m/s
W-SW (6 Bft)
- - 0,00 min 24,2 klux 7,0 C 6,4 C
Durchschnitt _ 8,8 C 8,9 C 78 % 1020 hPa #0,7 l/m 5,6 m/s (4 Bft) W-SW - #0 min. 2,16 klux 5,2 C 2,1 C